Time,TemperatureF,DewpointF,PressureIn,WindDirection,WindDirectionDegrees,WindSpeedMPH,WindSpeedGustMPH,Humidity,HourlyPrecipIn,Conditions,Clouds,dailyrainin,SoftwareType,DateUTC
2013-04-30 00:01:00,57.5,53.3,30.01,ENE,72,2.0,2.0,86,0.00,,,0.01,Wunderground v.1.15,2013-04-30 04:01:00,
2013-04-30 00:03:00,57.5,53.3,30.01,ENE,69,2.0,4.0,86,0.00,,,0.01,Wunderground v.1.15,2013-04-30 04:03:00,
2013-04-30 00:05:00,57.5,53.7,30.01,NE,56,3.0,4.0,87,0.00,,,0.00,Wunderground v.1.15,2013-04-30 04:05:00,
2013-04-30 00:07:00,57.6,53.8,30.01,ENE,59,3.0,4.0,87,0.00,,,0.00,Wunderground v.1.15,2013-04-30 04:07:00,
2013-04-30 00:11:00,57.6,53.8,30.01,ENE,60,3.0,3.0,87,0.00,,,0.00,Wunderground v.1.15,2013-04-30 04:11:00,
2013-04-30 00:17:00,57.5,53.7,30.01,ENE,65,3.0,3.0,87,0.00,,,0.00,Wunderground v.1.15,2013-04-30 04:17:00,
2013-04-30 00:22:00,57.5,53.7,30.01,ENE,58,2.0,2.0,87,0.00,,,0.00,Wunderground v.1.15,2013-04-30 04:22:00,
2013-04-30 00:27:00,57.5,53.7,30.01,ENE,58,1.0,2.0,87,0.00,,,0.00,Wunderground v.1.15,2013-04-30 04:27:00,
2013-04-30 00:33:00,57.5,54.0,30.01,SE,131,1.0,3.0,88,0.00,,,0.00,Wunderground v.1.15,2013-04-30 04:33:00,
2013-04-30 00:39:00,57.2,53.7,30.01,East,91,3.0,7.0,88,0.00,,,0.00,Wunderground v.1.15,2013-04-30 04:39:00,
2013-04-30 00:45:00,56.9,53.7,30.01,East,93,4.0,6.0,89,0.00,,,0.00,Wunderground v.1.15,2013-04-30 04:45:00,
2013-04-30 00:50:00,56.7,53.8,30.01,East,92,3.0,6.0,90,0.00,,,0.00,Wunderground v.1.15,2013-04-30 04:50:00,
2013-04-30 00:56:00,56.6,53.7,30.01,East,93,4.0,6.0,90,0.00,,,0.00,Wunderground v.1.15,2013-04-30 04:56:00,
2013-04-30 01:02:00,56.5,53.9,30.01,East,101,3.0,6.0,91,0.00,,,0.00,Wunderground v.1.15,2013-04-30 05:02:00,
2013-04-30 01:08:00,56.5,53.9,30.01,ESE,120,2.0,6.0,91,0.00,,,0.00,Wunderground v.1.15,2013-04-30 05:08:00,
2013-04-30 01:13:00,56.5,53.9,30.01,East,87,2.0,6.0,91,0.00,,,0.00,Wunderground v.1.15,2013-04-30 05:13:00,
2013-04-30 01:19:00,56.5,53.9,30.01,ESE,104,2.0,6.0,91,0.00,,,0.00,Wunderground v.1.15,2013-04-30 05:19:00,
2013-04-30 01:24:00,56.4,53.8,30.01,ESE,105,3.0,6.0,91,0.00,,,0.00,Wunderground v.1.15,2013-04-30 05:24:00,
2013-04-30 01:30:00,56.3,53.4,30.01,East,84,2.0,6.0,90,0.00,,,0.00,Wunderground v.1.15,2013-04-30 05:30:00,
2013-04-30 01:36:00,56.3,53.7,30.01,ENE,59,2.0,6.0,91,0.00,,,0.00,Wunderground v.1.15,2013-04-30 05:36:00,
2013-04-30 01:41:00,56.2,53.6,30.01,ENE,64,2.0,6.0,91,0.00,,,0.00,Wunderground v.1.15,2013-04-30 05:41:00,
2013-04-30 01:46:00,56.2,53.6,30.01,ENE,71,2.0,6.0,91,0.00,,,0.00,Wunderground v.1.15,2013-04-30 05:46:00,
2013-04-30 01:51:00,56.1,53.5,30.01,ENE,75,2.0,6.0,91,0.00,,,0.00,Wunderground v.1.15,2013-04-30 05:51:00,
2013-04-30 01:57:00,56.1,53.5,30.01,East,89,2.0,6.0,91,0.00,,,0.00,Wunderground v.1.15,2013-04-30 05:57:00,
2013-04-30 02:02:00,56.1,53.5,30.01,ENE,70,2.0,6.0,91,0.00,,,0.00,Wunderground v.1.15,2013-04-30 06:02:00,
2013-04-30 02:07:00,56.0,53.1,30.01,ENE,77,2.0,6.0,90,0.00,,,0.00,Wunderground v.1.15,2013-04-30 06:07:00,
2013-04-30 02:12:00,55.9,53.0,30.01,ESE,107,3.0,6.0,90,0.00,,,0.00,Wunderground v.1.15,2013-04-30 06:12:00,
2013-04-30 02:17:00,55.9,53.0,30.01,East,92,2.0,6.0,90,0.00,,,0.00,Wunderground v.1.15,2013-04-30 06:17:00,
2013-04-30 02:22:00,55.8,52.9,30.01,ENE,63,3.0,6.0,90,0.00,,,0.00,Wunderground v.1.15,2013-04-30 06:22:00,
2013-04-30 02:28:00,55.7,52.8,30.00,ENE,70,3.0,6.0,90,0.00,,,0.00,Wunderground v.1.15,2013-04-30 06:28:00,
2013-04-30 02:33:00,55.6,52.7,30.00,ESE,104,3.0,6.0,90,0.00,,,0.00,Wunderground v.1.15,2013-04-30 06:33:00,
2013-04-30 02:39:00,55.5,52.6,30.00,ENE,73,2.0,6.0,90,0.00,,,0.00,Wunderground v.1.15,2013-04-30 06:39:00,
2013-04-30 02:44:00,55.5,52.6,30.00,East,97,2.0,6.0,90,0.00,,,0.00,Wunderground v.1.15,2013-04-30 06:44:00,
2013-04-30 02:49:00,55.5,52.6,30.00,East,81,1.0,6.0,90,0.00,,,0.00,Wunderground v.1.15,2013-04-30 06:49:00,
2013-04-30 02:54:00,55.3,52.4,30.00,East,83,2.0,6.0,90,0.00,,,0.00,Wunderground v.1.15,2013-04-30 06:54:00,
2013-04-30 03:00:00,55.3,52.4,30.00,ENE,74,3.0,6.0,90,0.00,,,0.00,Wunderground v.1.15,2013-04-30 07:00:00,
2013-04-30 03:05:00,55.3,52.4,30.00,SE,146,2.0,6.0,90,0.00,,,0.00,Wunderground v.1.15,2013-04-30 07:05:00,
2013-04-30 03:11:00,55.1,52.2,30.01,SSE,162,2.0,6.0,90,0.00,,,0.00,Wunderground v.1.15,2013-04-30 07:11:00,
2013-04-30 03:16:00,55.0,52.4,30.01,SSE,155,2.0,6.0,91,0.00,,,0.00,Wunderground v.1.15,2013-04-30 07:16:00,
2013-04-30 03:22:00,54.7,52.1,30.01,SE,127,3.0,6.0,91,0.00,,,0.00,Wunderground v.1.15,2013-04-30 07:22:00,
2013-04-30 03:27:00,54.5,51.9,30.01,SSE,154,3.0,6.0,91,0.00,,,0.00,Wunderground v.1.15,2013-04-30 07:27:00,
2013-04-30 03:33:00,54.3,52.0,30.01,South,182,2.0,6.0,92,0.00,,,0.00,Wunderground v.1.15,2013-04-30 07:33:00,
2013-04-30 03:38:00,54.1,51.8,30.01,South,170,2.0,6.0,92,0.00,,,0.00,Wunderground v.1.15,2013-04-30 07:38:00,
2013-04-30 03:43:00,54.0,51.7,30.01,SSE,160,2.0,6.0,92,0.00,,,0.00,Wunderground v.1.15,2013-04-30 07:43:00,
2013-04-30 03:48:00,54.0,51.7,30.01,SSE,166,1.0,6.0,92,0.00,,,0.00,Wunderground v.1.15,2013-04-30 07:48:00,
2013-04-30 03:53:00,54.0,51.7,30.01,South,181,0.0,6.0,92,0.00,,,0.00,Wunderground v.1.15,2013-04-30 07:53:00,
2013-04-30 03:59:00,53.9,51.9,30.02,South,178,1.0,6.0,93,0.00,,,0.00,Wunderground v.1.15,2013-04-30 07:59:00,
2013-04-30 04:04:00,53.9,51.9,30.02,South,178,1.0,6.0,93,0.00,,,0.00,Wunderground v.1.15,2013-04-30 08:04:00,
2013-04-30 04:10:00,53.9,51.9,30.02,South,177,1.0,6.0,93,0.00,,,0.00,Wunderground v.1.15,2013-04-30 08:10:00,
2013-04-30 04:15:00,53.9,51.9,30.02,South,177,1.0,6.0,93,0.00,,,0.00,Wunderground v.1.15,2013-04-30 08:15:00,
2013-04-30 04:20:00,53.8,51.8,30.02,South,177,1.0,6.0,93,0.00,,,0.00,Wunderground v.1.15,2013-04-30 08:20:00,
2013-04-30 04:26:00,53.7,51.7,30.02,SSE,161,1.0,6.0,93,0.00,,,0.00,Wunderground v.1.15,2013-04-30 08:26:00,
2013-04-30 04:31:00,53.6,51.6,30.02,SSE,161,2.0,6.0,93,0.00,,,0.00,Wunderground v.1.15,2013-04-30 08:31:00,
2013-04-30 04:37:00,53.6,51.6,30.02,SSE,166,2.0,6.0,93,0.00,,,0.00,Wunderground v.1.15,2013-04-30 08:37:00,
2013-04-30 04:42:00,53.5,51.5,30.02,SSE,147,2.0,6.0,93,0.00,,,0.00,Wunderground v.1.15,2013-04-30 08:42:00,
2013-04-30 04:47:00,53.5,51.5,30.02,SSE,151,1.0,6.0,93,0.00,,,0.00,Wunderground v.1.15,2013-04-30 08:47:00,
2013-04-30 04:53:00,53.5,51.5,30.02,SSE,158,1.0,6.0,93,0.00,,,0.00,Wunderground v.1.15,2013-04-30 08:53:00,
2013-04-30 04:59:00,53.5,51.5,30.03,SSE,157,2.0,6.0,93,0.00,,,0.00,Wunderground v.1.15,2013-04-30 08:59:00,
2013-04-30 05:04:00,53.5,51.5,30.03,SSE,159,1.0,6.0,93,0.00,,,0.00,Wunderground v.1.15,2013-04-30 09:04:00,
2013-04-30 05:10:00,53.5,51.5,30.03,SSE,159,1.0,6.0,93,0.00,,,0.00,Wunderground v.1.15,2013-04-30 09:10:00,
2013-04-30 05:15:00,53.4,51.4,30.03,SSE,159,1.0,6.0,93,0.00,,,0.00,Wunderground v.1.15,2013-04-30 09:15:00,
2013-04-30 05:20:00,53.4,51.4,30.03,SSE,159,0.0,6.0,93,0.00,,,0.00,Wunderground v.1.15,2013-04-30 09:20:00,
2013-04-30 05:25:00,53.3,51.3,30.04,SSE,159,0.0,6.0,93,0.00,,,0.00,Wunderground v.1.15,2013-04-30 09:25:00,
2013-04-30 05:31:00,53.3,51.3,30.04,SSE,160,1.0,6.0,93,0.00,,,0.00,Wunderground v.1.15,2013-04-30 09:31:00,
2013-04-30 05:36:00,53.3,51.3,30.04,SSE,159,1.0,6.0,93,0.00,,,0.00,Wunderground v.1.15,2013-04-30 09:36:00,
2013-04-30 05:41:00,53.3,51.3,30.04,SSE,160,1.0,6.0,93,0.00,,,0.00,Wunderground v.1.15,2013-04-30 09:41:00,
2013-04-30 05:47:00,53.3,51.3,30.05,SW,222,1.0,6.0,93,0.00,,,0.00,Wunderground v.1.15,2013-04-30 09:47:00,
2013-04-30 05:52:00,53.3,51.3,30.05,SW,222,2.0,6.0,93,0.00,,,0.00,Wunderground v.1.15,2013-04-30 09:52:00,
2013-04-30 05:57:00,53.2,51.2,30.05,SW,222,2.0,6.0,93,0.00,,,0.00,Wunderground v.1.15,2013-04-30 09:57:00,
2013-04-30 06:02:00,53.1,51.1,30.05,SW,222,2.0,6.0,93,0.00,,,0.00,Wunderground v.1.15,2013-04-30 10:02:00,
2013-04-30 06:07:00,53.1,51.1,30.06,SW,222,1.0,6.0,93,0.00,,,0.00,Wunderground v.1.15,2013-04-30 10:07:00,
2013-04-30 06:12:00,53.2,51.2,30.06,SW,222,1.0,6.0,93,0.00,,,0.00,Wunderground v.1.15,2013-04-30 10:12:00,
2013-04-30 06:17:00,53.2,51.2,30.06,SW,222,0.0,6.0,93,0.00,,,0.00,Wunderground v.1.15,2013-04-30 10:17:00,
2013-04-30 06:22:00,53.2,51.2,30.06,WNW,295,1.0,6.0,93,0.00,,,0.00,Wunderground v.1.15,2013-04-30 10:22:00,
2013-04-30 06:28:00,53.2,51.2,30.06,WNW,296,1.0,6.0,93,0.00,,,0.00,Wunderground v.1.15,2013-04-30 10:28:00,
2013-04-30 06:33:00,53.1,51.1,30.06,WNW,299,0.0,6.0,93,0.00,,,0.00,Wunderground v.1.15,2013-04-30 10:33:00,
2013-04-30 06:38:00,53.0,51.0,30.07,NNW,336,0.0,6.0,93,0.00,,,0.00,Wunderground v.1.15,2013-04-30 10:38:00,
2013-04-30 06:43:00,52.9,50.9,30.07,NNW,336,0.0,6.0,93,0.00,,,0.00,Wunderground v.1.15,2013-04-30 10:43:00,
2013-04-30 06:48:00,52.9,50.9,30.07,ENE,60,1.0,6.0,93,0.00,,,0.00,Wunderground v.1.15,2013-04-30 10:48:00,
2013-04-30 06:54:00,52.8,51.1,30.07,ENE,60,0.0,6.0,94,0.00,,,0.00,Wunderground v.1.15,2013-04-30 10:54:00,
2013-04-30 06:59:00,52.8,51.1,30.07,ENE,60,0.0,6.0,94,0.00,,,0.00,Wunderground v.1.15,2013-04-30 10:59:00,
2013-04-30 07:04:00,52.7,51.0,30.07,NE,47,0.0,6.0,94,0.00,,,0.00,Wunderground v.1.15,2013-04-30 11:04:00,
2013-04-30 07:10:00,52.6,50.6,30.07,ENE,62,1.0,1.0,93,0.00,,,0.00,Wunderground v.1.15,2013-04-30 11:10:00,
2013-04-30 07:15:00,52.6,50.6,30.07,ENE,62,1.0,6.0,93,0.00,,,0.00,Wunderground v.1.15,2013-04-30 11:15:00,
2013-04-30 07:20:00,52.6,50.6,30.08,NW,312,1.0,6.0,93,0.00,,,0.00,Wunderground v.1.15,2013-04-30 11:20:00,
2013-04-30 07:25:00,52.5,50.5,30.08,NNW,337,1.0,6.0,93,0.00,,,0.00,Wunderground v.1.15,2013-04-30 11:25:00,
2013-04-30 07:30:00,52.5,50.5,30.08,NNW,337,1.0,1.0,93,0.00,,,0.00,Wunderground v.1.15,2013-04-30 11:30:00,
2013-04-30 07:35:00,52.6,50.6,30.09,NNW,337,0.0,6.0,93,0.00,,,0.00,Wunderground v.1.15,2013-04-30 11:35:00,
2013-04-30 07:41:00,52.6,50.6,30.09,NNW,337,0.0,6.0,93,0.00,,,0.00,Wunderground v.1.15,2013-04-30 11:41:00,
2013-04-30 07:46:00,52.6,50.6,30.09,NNW,337,1.0,6.0,93,0.00,,,0.00,Wunderground v.1.15,2013-04-30 11:46:00,
2013-04-30 07:51:00,52.6,50.6,30.09,NNW,337,1.0,6.0,93,0.00,,,0.00,Wunderground v.1.15,2013-04-30 11:51:00,
2013-04-30 07:57:00,52.7,51.0,30.10,NNW,337,0.0,6.0,94,0.00,,,0.00,Wunderground v.1.15,2013-04-30 11:57:00,
2013-04-30 08:02:00,52.7,51.0,30.10,NNW,337,0.0,6.0,94,0.00,,,0.00,Wunderground v.1.15,2013-04-30 12:02:00,
2013-04-30 08:07:00,52.8,51.1,30.10,NNW,337,0.0,6.0,94,0.00,,,0.00,Wunderground v.1.15,2013-04-30 12:07:00,
2013-04-30 08:12:00,52.9,51.2,30.10,NNW,337,0.0,6.0,94,0.00,,,0.00,Wunderground v.1.15,2013-04-30 12:12:00,
2013-04-30 08:17:00,53.0,51.3,30.10,NNW,337,0.0,6.0,94,0.00,,,0.00,Wunderground v.1.15,2013-04-30 12:17:00,
2013-04-30 08:22:00,53.0,51.3,30.10,NNW,333,1.0,6.0,94,0.00,,,0.00,Wunderground v.1.15,2013-04-30 12:22:00,
2013-04-30 08:28:00,53.1,51.4,30.10,NNW,333,1.0,6.0,94,0.00,,,0.00,Wunderground v.1.15,2013-04-30 12:28:00,
2013-04-30 08:33:00,53.1,51.1,30.10,NNW,333,0.0,6.0,93,0.00,,,0.00,Wunderground v.1.15,2013-04-30 12:33:00,
2013-04-30 08:38:00,53.1,51.1,30.10,NNW,333,1.0,6.0,93,0.00,,,0.00,Wunderground v.1.15,2013-04-30 12:38:00,
2013-04-30 08:43:00,53.2,51.5,30.10,NNW,333,0.0,6.0,94,0.00,,,0.00,Wunderground v.1.15,2013-04-30 12:43:00,
2013-04-30 08:49:00,53.3,51.6,30.10,NNW,333,0.0,6.0,94,0.00,,,0.00,Wunderground v.1.15,2013-04-30 12:49:00,
2013-04-30 08:54:00,53.3,51.3,30.11,NNW,333,0.0,6.0,93,0.00,,,0.00,Wunderground v.1.15,2013-04-30 12:54:00,
2013-04-30 09:00:00,53.4,51.4,30.11,NNW,333,0.0,6.0,93,0.00,,,0.00,Wunderground v.1.15,2013-04-30 13:00:00,
2013-04-30 09:06:00,53.4,51.4,30.11,NNW,333,1.0,6.0,93,0.00,,,0.00,Wunderground v.1.15,2013-04-30 13:06:00,
2013-04-30 09:12:00,53.4,51.4,30.11,NNW,333,1.0,6.0,93,0.00,,,0.00,Wunderground v.1.15,2013-04-30 13:12:00,
2013-04-30 09:18:00,53.5,51.5,30.11,NNW,333,1.0,6.0,93,0.00,,,0.00,Wunderground v.1.15,2013-04-30 13:18:00,
2013-04-30 09:24:00,53.7,51.7,30.11,NNW,333,1.0,6.0,93,0.00,,,0.00,Wunderground v.1.15,2013-04-30 13:24:00,
2013-04-30 09:29:00,53.8,51.8,30.11,NNW,328,1.0,6.0,93,0.00,,,0.00,Wunderground v.1.15,2013-04-30 13:29:00,
2013-04-30 09:35:00,53.9,51.9,30.11,NNW,341,1.0,6.0,93,0.00,,,0.00,Wunderground v.1.15,2013-04-30 13:35:00,
2013-04-30 09:41:00,53.9,51.9,30.11,North,354,2.0,6.0,93,0.00,,,0.00,Wunderground v.1.15,2013-04-30 13:41:00,
2013-04-30 09:46:00,54.0,52.0,30.11,NNW,337,2.0,6.0,93,0.00,,,0.00,Wunderground v.1.15,2013-04-30 13:46:00,
2013-04-30 09:52:00,54.3,52.3,30.11,North,8,2.0,6.0,93,0.00,,,0.00,Wunderground v.1.15,2013-04-30 13:52:00,
2013-04-30 09:58:00,54.3,52.0,30.11,North,8,1.0,6.0,92,0.00,,,0.00,Wunderground v.1.15,2013-04-30 13:58:00,
2013-04-30 10:03:00,54.4,52.4,30.11,North,8,1.0,6.0,93,0.00,,,0.00,Wunderground v.1.15,2013-04-30 14:03:00,
2013-04-30 10:09:00,54.5,52.5,30.12,ENE,65,1.0,6.0,93,0.00,,,0.00,Wunderground v.1.15,2013-04-30 14:09:00,
2013-04-30 10:15:00,54.5,52.2,30.12,ENE,68,1.0,6.0,92,0.00,,,0.00,Wunderground v.1.15,2013-04-30 14:15:00,
2013-04-30 10:21:00,54.7,52.4,30.12,East,81,1.0,6.0,92,0.00,,,0.00,Wunderground v.1.15,2013-04-30 14:21:00,
2013-04-30 10:27:00,54.7,52.1,30.12,ESE,114,2.0,6.0,91,0.00,,,0.00,Wunderground v.1.15,2013-04-30 14:27:00,
2013-04-30 10:32:00,54.8,52.5,30.12,East,82,2.0,6.0,92,0.00,,,0.00,Wunderground v.1.15,2013-04-30 14:32:00,
2013-04-30 10:37:00,55.0,52.4,30.11,ENE,76,2.0,6.0,91,0.00,,,0.00,Wunderground v.1.15,2013-04-30 14:37:00,
2013-04-30 10:43:00,55.3,52.4,30.11,ENE,72,2.0,6.0,90,0.00,,,0.00,Wunderground v.1.15,2013-04-30 14:43:00,
2013-04-30 10:49:00,55.4,52.2,30.11,East,95,1.0,6.0,89,0.00,,,0.00,Wunderground v.1.15,2013-04-30 14:49:00,
2013-04-30 10:55:00,55.7,52.8,30.12,East,97,1.0,6.0,90,0.00,,,0.00,Wunderground v.1.15,2013-04-30 14:55:00,
2013-04-30 11:00:00,56.1,52.6,30.12,NE,47,0.0,6.0,88,0.00,,,0.00,Wunderground v.1.15,2013-04-30 15:00:00,
2013-04-30 11:06:00,56.3,52.8,30.12,ENE,74,1.0,6.0,88,0.00,,,0.00,Wunderground v.1.15,2013-04-30 15:06:00,
2013-04-30 11:11:00,56.4,52.6,30.12,ENE,75,2.0,6.0,87,0.00,,,0.00,Wunderground v.1.15,2013-04-30 15:11:00,
2013-04-30 11:17:00,56.4,52.6,30.12,ENE,70,2.0,6.0,87,0.00,,,0.00,Wunderground v.1.15,2013-04-30 15:17:00,
2013-04-30 11:23:00,56.5,52.4,30.12,ENE,74,2.0,6.0,86,0.00,,,0.00,Wunderground v.1.15,2013-04-30 15:23:00,
2013-04-30 11:29:00,56.6,52.5,30.12,ENE,65,2.0,6.0,86,0.00,,,0.00,Wunderground v.1.15,2013-04-30 15:29:00,
2013-04-30 11:35:00,56.8,52.7,30.12,East,79,2.0,6.0,86,0.00,,,0.00,Wunderground v.1.15,2013-04-30 15:35:00,
2013-04-30 11:41:00,57.1,53.0,30.11,ENE,70,2.0,3.0,86,0.00,,,0.00,Wunderground v.1.15,2013-04-30 15:41:00,
2013-04-30 11:46:00,57.4,52.9,30.11,NE,56,1.0,6.0,85,0.00,,,0.00,Wunderground v.1.15,2013-04-30 15:46:00,
2013-04-30 11:51:00,57.4,52.9,30.12,ENE,67,1.0,6.0,85,0.00,,,0.00,Wunderground v.1.15,2013-04-30 15:51:00,
2013-04-30 11:57:00,57.3,52.5,30.11,ENE,68,1.0,6.0,84,0.00,,,0.00,Wunderground v.1.15,2013-04-30 15:57:00,
2013-04-30 12:02:00,57.5,52.7,30.11,ENE,68,1.0,6.0,84,0.00,,,0.00,Wunderground v.1.15,2013-04-30 16:02:00,
2013-04-30 12:07:00,57.6,53.1,30.11,ENE,68,1.0,6.0,85,0.00,,,0.00,Wunderground v.1.15,2013-04-30 16:07:00,
2013-04-30 12:12:00,57.7,52.9,30.11,ENE,69,1.0,6.0,84,0.00,,,0.00,Wunderground v.1.15,2013-04-30 16:12:00,
2013-04-30 12:18:00,57.8,52.7,30.11,ENE,68,1.0,6.0,83,0.00,,,0.00,Wunderground v.1.15,2013-04-30 16:18:00,
2013-04-30 12:24:00,57.8,53.0,30.11,ENE,64,2.0,6.0,84,0.00,,,0.00,Wunderground v.1.15,2013-04-30 16:24:00,
2013-04-30 12:30:00,57.9,53.1,30.11,ENE,64,2.0,6.0,84,0.00,,,0.00,Wunderground v.1.15,2013-04-30 16:30:00,
2013-04-30 12:35:00,57.9,52.8,30.11,ENE,64,2.0,6.0,83,0.00,,,0.00,Wunderground v.1.15,2013-04-30 16:35:00,
2013-04-30 12:41:00,58.1,52.6,30.11,NE,36,2.0,6.0,82,0.00,,,0.00,Wunderground v.1.15,2013-04-30 16:41:00,
2013-04-30 12:46:00,58.4,52.9,30.11,ENE,63,1.0,6.0,82,0.00,,,0.00,Wunderground v.1.15,2013-04-30 16:46:00,
2013-04-30 12:51:00,58.7,53.5,30.11,ENE,62,1.0,2.0,83,0.00,,,0.00,Wunderground v.1.15,2013-04-30 16:51:00,
2013-04-30 12:56:00,59.2,53.4,30.10,ENE,62,1.0,6.0,81,0.00,,,0.00,Wunderground v.1.15,2013-04-30 16:56:00,
2013-04-30 13:01:00,59.1,53.3,30.10,NE,51,1.0,6.0,81,0.00,,,0.00,Wunderground v.1.15,2013-04-30 17:01:00,
2013-04-30 13:07:00,59.1,53.3,30.10,East,94,2.0,6.0,81,0.00,,,0.00,Wunderground v.1.15,2013-04-30 17:07:00,
2013-04-30 13:12:00,58.9,53.7,30.10,ESE,108,3.0,6.0,83,0.00,,,0.00,Wunderground v.1.15,2013-04-30 17:12:00,
2013-04-30 13:17:00,58.9,53.4,30.10,ENE,63,4.0,7.0,82,0.00,,,0.00,Wunderground v.1.15,2013-04-30 17:17:00,
2013-04-30 13:22:00,58.6,53.1,30.10,East,79,3.0,6.0,82,0.00,,,0.00,Wunderground v.1.15,2013-04-30 17:22:00,
2013-04-30 13:27:00,58.7,53.2,30.10,ESE,106,4.0,7.0,82,0.00,,,0.00,Wunderground v.1.15,2013-04-30 17:27:00,
2013-04-30 13:32:00,58.6,53.1,30.10,ESE,123,5.0,8.0,82,0.00,,,0.00,Wunderground v.1.15,2013-04-30 17:32:00,
2013-04-30 13:37:00,58.4,52.9,30.10,East,81,6.0,8.0,82,0.00,,,0.00,Wunderground v.1.15,2013-04-30 17:37:00,
2013-04-30 13:42:00,58.3,52.8,30.10,East,82,5.0,6.0,82,0.00,,,0.00,Wunderground v.1.15,2013-04-30 17:42:00,
2013-04-30 13:47:00,58.3,52.8,30.10,SE,131,5.0,8.0,82,0.00,,,0.00,Wunderground v.1.15,2013-04-30 17:47:00,
2013-04-30 13:53:00,58.2,52.7,30.10,East,84,6.0,7.0,82,0.00,,,0.00,Wunderground v.1.15,2013-04-30 17:53:00,
2013-04-30 13:59:00,58.3,52.8,30.10,SE,125,5.0,7.0,82,0.00,,,0.00,Wunderground v.1.15,2013-04-30 17:59:00,
2013-04-30 14:05:00,58.4,52.9,30.10,SE,125,4.0,8.0,82,0.00,,,0.00,Wunderground v.1.15,2013-04-30 18:05:00,
2013-04-30 14:10:00,58.5,52.7,30.10,ESE,118,5.0,5.0,81,0.00,,,0.00,Wunderground v.1.15,2013-04-30 18:10:00,
2013-04-30 14:16:00,58.7,52.9,30.10,East,100,3.0,6.0,81,0.00,,,0.00,Wunderground v.1.15,2013-04-30 18:16:00,
2013-04-30 14:22:00,58.9,53.1,30.10,ENE,63,2.0,6.0,81,0.00,,,0.00,Wunderground v.1.15,2013-04-30 18:22:00,
2013-04-30 14:28:00,58.9,53.1,30.11,ENE,59,3.0,6.0,81,0.00,,,0.00,Wunderground v.1.15,2013-04-30 18:28:00,
2013-04-30 14:34:00,59.0,53.2,30.11,ENE,75,2.0,6.0,81,0.00,,,0.00,Wunderground v.1.15,2013-04-30 18:34:00,
2013-04-30 14:39:00,59.1,53.3,30.11,ENE,57,3.0,6.0,81,0.00,,,0.00,Wunderground v.1.15,2013-04-30 18:39:00,
2013-04-30 14:44:00,59.0,52.8,30.11,East,79,3.0,6.0,80,0.00,,,0.00,Wunderground v.1.15,2013-04-30 18:44:00,
2013-04-30 14:50:00,59.0,52.8,30.11,ESE,116,3.0,3.0,80,0.00,,,0.00,Wunderground v.1.15,2013-04-30 18:50:00,
2013-04-30 14:55:00,59.0,52.8,30.11,ENE,68,3.0,6.0,80,0.00,,,0.00,Wunderground v.1.15,2013-04-30 18:55:00,
2013-04-30 15:01:00,59.1,52.9,30.12,ESE,118,3.0,6.0,80,0.00,,,0.00,Wunderground v.1.15,2013-04-30 19:01:00,
2013-04-30 15:06:00,59.1,52.6,30.12,East,95,3.0,8.0,79,0.00,,,0.00,Wunderground v.1.15,2013-04-30 19:06:00,
2013-04-30 15:11:00,59.0,52.5,30.11,ESE,117,5.0,6.0,79,0.00,,,0.00,Wunderground v.1.15,2013-04-30 19:11:00,
2013-04-30 15:17:00,59.0,52.5,30.12,ENE,73,5.0,6.0,79,0.00,,,0.00,Wunderground v.1.15,2013-04-30 19:17:00,
2013-04-30 15:22:00,58.9,52.1,30.12,East,81,4.0,6.0,78,0.00,,,0.00,Wunderground v.1.15,2013-04-30 19:22:00,
2013-04-30 15:28:00,59.0,52.1,30.12,ENE,64,3.0,6.0,78,0.00,,,0.00,Wunderground v.1.15,2013-04-30 19:28:00,
2013-04-30 15:34:00,59.1,52.2,30.12,East,91,3.0,6.0,78,0.00,,,0.00,Wunderground v.1.15,2013-04-30 19:34:00,
2013-04-30 15:40:00,59.3,52.4,30.12,East,91,1.0,6.0,78,0.00,,,0.00,Wunderground v.1.15,2013-04-30 19:40:00,
2013-04-30 15:45:00,59.4,52.5,30.12,ESE,119,1.0,6.0,78,0.00,,,0.00,Wunderground v.1.15,2013-04-30 19:45:00,
2013-04-30 15:50:00,59.6,52.4,30.12,SE,127,2.0,6.0,77,0.00,,,0.00,Wunderground v.1.15,2013-04-30 19:50:00,
2013-04-30 15:56:00,59.9,52.7,30.12,ENE,66,3.0,6.0,77,0.00,,,0.00,Wunderground v.1.15,2013-04-30 19:56:00,
2013-04-30 16:02:00,60.2,53.0,30.11,ESE,120,3.0,6.0,77,0.00,,,0.00,Wunderground v.1.15,2013-04-30 20:02:00,
2013-04-30 16:07:00,60.6,53.3,30.11,East,99,3.0,8.0,77,0.00,,,0.00,Wunderground v.1.15,2013-04-30 20:07:00,
2013-04-30 16:13:00,60.9,52.9,30.11,East,93,4.0,6.0,75,0.00,,,0.00,Wunderground v.1.15,2013-04-30 20:13:00,
2013-04-30 16:18:00,61.2,53.6,30.11,ESE,103,4.0,6.0,76,0.00,,,0.00,Wunderground v.1.15,2013-04-30 20:18:00,
2013-04-30 16:23:00,61.4,53.4,30.11,ENE,57,3.0,6.0,75,0.00,,,0.00,Wunderground v.1.15,2013-04-30 20:23:00,
2013-04-30 16:29:00,61.6,53.6,30.11,East,84,3.0,6.0,75,0.00,,,0.00,Wunderground v.1.15,2013-04-30 20:29:00,
2013-04-30 16:34:00,61.6,53.2,30.11,ENE,60,3.0,6.0,74,0.00,,,0.00,Wunderground v.1.15,2013-04-30 20:34:00,
2013-04-30 16:39:00,61.7,53.3,30.12,East,85,3.0,7.0,74,0.00,,,0.00,Wunderground v.1.15,2013-04-30 20:39:00,
2013-04-30 16:44:00,61.8,53.1,30.11,East,83,4.0,7.0,73,0.00,,,0.00,Wunderground v.1.15,2013-04-30 20:44:00,
2013-04-30 16:49:00,61.8,52.7,30.11,East,101,6.0,8.0,72,0.00,,,0.00,Wunderground v.1.15,2013-04-30 20:49:00,
2013-04-30 16:55:00,62.0,52.9,30.11,SE,125,7.0,10.0,72,0.00,,,0.00,Wunderground v.1.15,2013-04-30 20:55:00,
2013-04-30 17:01:00,62.2,53.1,30.11,East,86,7.0,9.0,72,0.00,,,0.00,Wunderground v.1.15,2013-04-30 21:01:00,
2013-04-30 17:06:00,62.2,53.1,30.11,ESE,114,7.0,9.0,72,0.00,,,0.00,Wunderground v.1.15,2013-04-30 21:06:00,
2013-04-30 17:12:00,62.3,53.2,30.11,East,87,7.0,7.0,72,0.00,,,0.00,Wunderground v.1.15,2013-04-30 21:12:00,
2013-04-30 17:18:00,62.5,53.3,30.11,East,92,6.0,7.0,72,0.00,,,0.00,Wunderground v.1.15,2013-04-30 21:18:00,
2013-04-30 17:23:00,62.8,53.6,30.11,East,82,5.0,10.0,72,0.00,,,0.00,Wunderground v.1.15,2013-04-30 21:23:00,
2013-04-30 17:28:00,62.8,54.0,30.11,ENE,72,6.0,10.0,73,0.00,,,0.00,Wunderground v.1.15,2013-04-30 21:28:00,
2013-04-30 17:34:00,62.9,53.7,30.11,NE,48,5.0,6.0,72,0.00,,,0.00,Wunderground v.1.15,2013-04-30 21:34:00,
2013-04-30 17:39:00,62.8,53.6,30.11,East,85,5.0,9.0,72,0.00,,,0.00,Wunderground v.1.15,2013-04-30 21:39:00,
2013-04-30 17:45:00,62.3,53.5,30.11,ENE,67,7.0,10.0,73,0.00,,,0.00,Wunderground v.1.15,2013-04-30 21:45:00,
2013-04-30 17:50:00,62.1,53.7,30.11,ESE,115,8.0,10.0,74,0.00,,,0.00,Wunderground v.1.15,2013-04-30 21:50:00,
2013-04-30 17:56:00,61.8,53.8,30.11,ENE,69,8.0,11.0,75,0.00,,,0.00,Wunderground v.1.15,2013-04-30 21:56:00,
2013-04-30 18:01:00,61.4,53.0,30.11,ENE,58,9.0,11.0,74,0.00,,,0.00,Wunderground v.1.15,2013-04-30 22:01:00,
2013-04-30 18:06:00,61.5,53.9,30.11,East,84,9.0,11.0,76,0.00,,,0.00,Wunderground v.1.15,2013-04-30 22:06:00,
2013-04-30 18:12:00,61.3,53.3,30.12,East,91,7.0,10.0,75,0.00,,,0.00,Wunderground v.1.15,2013-04-30 22:12:00,
2013-04-30 18:17:00,61.2,53.6,30.12,East,88,6.0,10.0,76,0.00,,,0.00,Wunderground v.1.15,2013-04-30 22:17:00,
2013-04-30 18:22:00,61.0,53.7,30.13,ENE,67,5.0,12.0,77,0.00,,,0.00,Wunderground v.1.15,2013-04-30 22:22:00,
2013-04-30 18:28:00,60.7,53.4,30.13,ESE,120,6.0,12.0,77,0.00,,,0.00,Wunderground v.1.15,2013-04-30 22:28:00,
2013-04-30 18:34:00,60.4,53.2,30.13,East,89,7.0,8.0,77,0.00,,,0.00,Wunderground v.1.15,2013-04-30 22:34:00,
2013-04-30 18:40:00,60.3,53.1,30.13,East,93,6.0,14.0,77,0.00,,,0.00,Wunderground v.1.15,2013-04-30 22:40:00,
2013-04-30 18:46:00,60.1,53.6,30.14,NE,56,7.0,14.0,79,0.00,,,0.00,Wunderground v.1.15,2013-04-30 22:46:00,
2013-04-30 18:52:00,59.7,53.2,30.14,ENE,62,8.0,14.0,79,0.00,,,0.00,Wunderground v.1.15,2013-04-30 22:52:00,
2013-04-30 18:58:00,59.2,53.4,30.14,East,86,9.0,14.0,81,0.00,,,0.00,Wunderground v.1.15,2013-04-30 22:58:00,
2013-04-30 19:03:00,58.9,53.1,30.15,East,97,8.0,9.0,81,0.00,,,0.00,Wunderground v.1.15,2013-04-30 23:03:00,
2013-04-30 19:09:00,58.7,52.9,30.15,ESE,113,7.0,10.0,81,0.00,,,0.00,Wunderground v.1.15,2013-04-30 23:09:00,
2013-04-30 19:14:00,58.5,52.7,30.15,East,97,6.0,8.0,81,0.00,,,0.00,Wunderground v.1.15,2013-04-30 23:14:00,
2013-04-30 19:19:00,58.2,52.7,30.14,ESE,115,6.0,10.0,82,0.00,,,0.00,Wunderground v.1.15,2013-04-30 23:19:00,
2013-04-30 19:25:00,58.1,52.6,30.15,ENE,77,7.0,8.0,82,0.00,,,0.00,Wunderground v.1.15,2013-04-30 23:25:00,
2013-04-30 19:30:00,58.1,52.3,30.15,East,100,8.0,8.0,81,0.00,,,0.00,Wunderground v.1.15,2013-04-30 23:30:00,
2013-04-30 19:36:00,58.1,52.3,30.16,ESE,113,10.0,12.0,81,0.00,,,0.00,Wunderground v.1.15,2013-04-30 23:36:00,
2013-04-30 19:41:00,58.0,52.5,30.16,East,100,10.0,12.0,82,0.00,,,0.00,Wunderground v.1.15,2013-04-30 23:41:00,
2013-04-30 19:47:00,57.8,52.7,30.16,ENE,78,9.0,12.0,83,0.00,,,0.00,Wunderground v.1.15,2013-04-30 23:47:00,
2013-04-30 19:53:00,57.7,52.6,30.17,ENE,67,8.0,9.0,83,0.00,,,0.00,Wunderground v.1.15,2013-04-30 23:53:00,
2013-04-30 19:59:00,57.6,52.5,30.17,East,97,5.0,9.0,83,0.00,,,0.00,Wunderground v.1.15,2013-04-30 23:59:00,
2013-04-30 20:04:00,57.5,52.4,30.17,ENE,77,4.0,7.0,83,0.00,,,0.00,Wunderground v.1.15,2013-05-01 00:04:00,
2013-04-30 20:10:00,57.3,52.5,30.17,ENE,60,6.0,6.0,84,0.00,,,0.00,Wunderground v.1.15,2013-05-01 00:10:00,
2013-04-30 20:16:00,57.1,52.6,30.18,East,92,7.0,10.0,85,0.00,,,0.00,Wunderground v.1.15,2013-05-01 00:16:00,
2013-04-30 20:22:00,56.9,52.4,30.18,ENE,69,7.0,7.0,85,0.00,,,0.00,Wunderground v.1.15,2013-05-01 00:22:00,
2013-04-30 20:27:00,56.8,52.3,30.18,East,89,6.0,8.0,85,0.00,,,0.00,Wunderground v.1.15,2013-05-01 00:27:00,
2013-04-30 20:32:00,56.8,52.3,30.18,ESE,109,6.0,11.0,85,0.00,,,0.00,Wunderground v.1.15,2013-05-01 00:32:00,
2013-04-30 20:38:00,56.7,52.6,30.18,East,81,6.0,11.0,86,0.00,,,0.00,Wunderground v.1.15,2013-05-01 00:38:00,
2013-04-30 20:44:00,56.4,52.6,30.18,ENE,60,6.0,7.0,87,0.00,,,0.00,Wunderground v.1.15,2013-05-01 00:44:00,
2013-04-30 20:50:00,56.2,52.7,30.19,NE,51,4.0,4.0,88,0.00,,,0.00,Wunderground v.1.15,2013-05-01 00:50:00,
2013-04-30 20:56:00,56.1,52.6,30.19,ENE,62,4.0,7.0,88,0.00,,,0.00,Wunderground v.1.15,2013-05-01 00:56:00,
2013-04-30 21:01:00,56.0,52.8,30.19,ENE,73,4.0,7.0,89,0.00,,,0.00,Wunderground v.1.15,2013-05-01 01:01:00,
2013-04-30 21:07:00,55.8,52.6,30.19,ENE,60,5.0,7.0,89,0.00,,,0.00,Wunderground v.1.15,2013-05-01 01:07:00,
2013-04-30 21:12:00,55.6,52.4,30.19,ENE,78,4.0,6.0,89,0.00,,,0.00,Wunderground v.1.15,2013-05-01 01:12:00,
2013-04-30 21:17:00,55.4,52.5,30.19,ENE,63,4.0,6.0,90,0.00,,,0.00,Wunderground v.1.15,2013-05-01 01:17:00,
2013-04-30 21:22:00,55.4,52.2,30.19,ENE,66,5.0,8.0,89,0.00,,,0.00,Wunderground v.1.15,2013-05-01 01:22:00,
2013-04-30 21:28:00,55.3,52.1,30.20,ENE,63,5.0,8.0,89,0.00,,,0.00,Wunderground v.1.15,2013-05-01 01:28:00,
2013-04-30 21:33:00,55.3,52.1,30.20,ENE,69,4.0,6.0,89,0.00,,,0.00,Wunderground v.1.15,2013-05-01 01:33:00,
2013-04-30 21:38:00,55.2,52.0,30.20,ENE,58,3.0,6.0,89,0.00,,,0.00,Wunderground v.1.15,2013-05-01 01:38:00,
2013-04-30 21:44:00,55.1,52.2,30.21,NNE,14,4.0,9.0,90,0.00,,,0.00,Wunderground v.1.15,2013-05-01 01:44:00,
2013-04-30 21:50:00,54.9,52.0,30.21,ENE,58,3.0,3.0,90,0.00,,,0.00,Wunderground v.1.15,2013-05-01 01:50:00,
2013-04-30 21:56:00,54.8,52.2,30.21,ENE,58,2.0,6.0,91,0.00,,,0.00,Wunderground v.1.15,2013-05-01 01:56:00,
2013-04-30 22:02:00,54.6,52.0,30.21,NE,49,1.0,6.0,91,0.00,,,0.00,Wunderground v.1.15,2013-05-01 02:02:00,
2013-04-30 22:07:00,54.5,51.9,30.21,NE,49,1.0,6.0,91,0.00,,,0.00,Wunderground v.1.15,2013-05-01 02:07:00,
2013-04-30 22:13:00,54.5,52.2,30.21,NE,49,1.0,6.0,92,0.00,,,0.00,Wunderground v.1.15,2013-05-01 02:13:00,
2013-04-30 22:18:00,54.4,52.1,30.21,NE,49,0.0,6.0,92,0.00,,,0.00,Wunderground v.1.15,2013-05-01 02:18:00,
2013-04-30 22:24:00,54.4,52.1,30.21,NE,49,0.0,6.0,92,0.00,,,0.00,Wunderground v.1.15,2013-05-01 02:24:00,
2013-04-30 22:29:00,54.4,52.1,30.21,North,354,1.0,6.0,92,0.00,,,0.00,Wunderground v.1.15,2013-05-01 02:29:00,
2013-04-30 22:34:00,54.2,51.9,30.21,North,354,1.0,6.0,92,0.00,,,0.00,Wunderground v.1.15,2013-05-01 02:34:00,
2013-04-30 22:40:00,54.2,51.9,30.21,North,354,1.0,1.0,92,0.00,,,0.00,Wunderground v.1.15,2013-05-01 02:40:00,
2013-04-30 22:45:00,54.2,51.9,30.21,North,354,0.0,6.0,92,0.00,,,0.00,Wunderground v.1.15,2013-05-01 02:45:00,
2013-04-30 22:50:00,54.2,51.9,30.21,North,354,0.0,6.0,92,0.00,,,0.00,Wunderground v.1.15,2013-05-01 02:50:00,
2013-04-30 22:55:00,54.1,52.1,30.22,North,354,0.0,6.0,93,0.00,,,0.00,Wunderground v.1.15,2013-05-01 02:55:00,
2013-04-30 23:01:00,54.1,52.1,30.21,North,354,0.0,6.0,93,0.00,,,0.00,Wunderground v.1.15,2013-05-01 03:01:00,
2013-04-30 23:06:00,54.1,52.1,30.22,North,359,0.0,6.0,93,0.00,,,0.00,Wunderground v.1.15,2013-05-01 03:06:00,
2013-04-30 23:12:00,54.1,52.1,30.22,North,359,1.0,6.0,93,0.00,,,0.01,Wunderground v.1.15,2013-05-01 03:12:00,
2013-04-30 23:17:00,54.1,52.1,30.21,North,359,0.0,6.0,93,0.00,,,0.01,Wunderground v.1.15,2013-05-01 03:17:00,
2013-04-30 23:23:00,54.1,52.1,30.22,East,81,1.0,6.0,93,0.00,,,0.01,Wunderground v.1.15,2013-05-01 03:23:00,
2013-04-30 23:29:00,54.1,52.1,30.22,ENE,59,2.0,6.0,93,0.00,,,0.01,Wunderground v.1.15,2013-05-01 03:29:00,
2013-04-30 23:34:00,54.2,52.2,30.22,ENE,59,1.0,6.0,93,0.00,,,0.01,Wunderground v.1.15,2013-05-01 03:34:00,
2013-04-30 23:39:00,54.2,52.2,30.22,ENE,59,0.0,6.0,93,0.00,,,0.01,Wunderground v.1.15,2013-05-01 03:39:00,
2013-04-30 23:44:00,54.2,52.2,30.22,ENE,59,0.0,6.0,93,0.00,,,0.01,Wunderground v.1.15,2013-05-01 03:44:00,
2013-04-30 23:50:00,54.2,51.9,30.22,North,354,1.0,1.0,92,0.00,,,0.01,Wunderground v.1.15,2013-05-01 03:50:00,
2013-04-30 23:56:00,54.2,51.9,30.22,ENE,69,2.0,6.0,92,0.00,,,0.01,Wunderground v.1.15,2013-05-01 03:56:00,